Location: Ottawa
(45.4167°N, 75.7000°W)
Time: 17:58:45
(UTC-04:00)

ISS - Pass Details

Date: 13 October 2017
Orbit: 401 x 408 km, 51.6° (Epoch: 20 October)

Event Time Altitude Azimuth Distance (km) Brightness Sun altitude
Rises 20:17:33 0° 290° (WNW) 2,326 1.5 -21.3°
Reaches altitude 10° 20:19:58 10° 273° (W) 1,464 0.1 -21.7°
Maximum altitude 20:22:28 20° 223° (SW) 996 -1.5 -22.1°
Enters shadow 20:23:05 19° 207° (SSW) 1,030 -1.7 -22.2°
